Flag for Japan Weather past 2 weeks in Utsunomiya, Japan

Now
92 °F

Passing clouds.


Feels Like: 106 °F
Forecast: 73 / 91 °F
Wind: 7 mph from East

Location: Mito

Current Time: Aug 4, 2015 at 4:36:28 PM

Latest Report: Aug 4, 2015 at 3:00 PM


Visibility: 9 mi

Pressure: 29.78 "Hg

Humidity: 61%

Dew point: 77 °F

Location of UtsunomiyaLocation

Historic Weather in Utsunomiya — Graph

°F

Utsunomiya temperature yesterday

Maximum temperature yesterday: 93 °F (at 12:00 PM)
Minimum temperature yesterday: 75 °F (at 4:00 AM)
Average temperature yesterday: 85 °F

Past Weeks' High & Low Weather Summary

 TemperatureHumidityPressure
High94 °F (Aug 4, 12:00 PM)99% (Jul 21, 2:00 AM)29.96 "Hg (Jul 21, 2:00 AM)
Low74 °F (Jul 21, 5:00 AM)48% (Jul 22, 2:00 PM)29.69 "Hg (Jul 28, 3:00 PM)
Average82 °F78%29.83 "Hg
* Reported Jul 20 3:00 PM — Aug 4 3:00 PM, Utsunomiya, Weather by CustomWeather, © 2015

Note: Actual official high and low records may vary slightly from our data, if they occured in-between our weather recording intervals... More about our weather records

Advertising

Utsunomiya weather history for previous 24 hours

 ConditionsComfort  
Time TempWeatherWind HumidityBarometerVisibility
3:00 PM
Tue, Aug 4
92 °FPassing clouds.7 mph61%29.78 "Hg9 mi
2:00 PM94 °FExtremely hot.7 mph61%29.79 "HgN/A
1:00 PM94 °FExtremely hot.7 mph60%29.79 "HgN/A
12:00 PM94 °FExtremely hot.7 mph55%29.81 "HgN/A
11:00 AM91 °FHot.5 mph58%29.82 "HgN/A
10:00 AM90 °FHot.5 mph64%29.84 "HgN/A
9:00 AM87 °FScattered clouds.5 mph69%29.84 "Hg6 mi
8:00 AM84 °FWarm.3 mph79%29.85 "HgN/A
7:00 AM82 °FWarm.3 mph83%29.85 "HgN/A
5:00 AM77 °FWarm.1 mph91%29.85 "HgN/A
4:00 AM76 °FMild.2 mph94%29.86 "HgN/A
3:00 AM78 °FClear.1 mph89%29.85 "Hg6 mi
2:00 AM81 °FWarm.2 mph83%29.85 "HgN/A
1:00 AM81 °FWarm.2 mph82%29.85 "HgN/A
12:00 AM82 °FWarm.3 mph78%29.86 "HgN/A
11:00 PM
Mon, Aug 3
82 °FWarm.6 mph74%29.87 "HgN/A
10:00 PM84 °FWarm.7 mph67%29.87 "HgN/A
9:00 PM85 °FPassing clouds.5 mph68%29.87 "Hg6 mi
8:00 PM87 °FWarm.6 mph70%29.85 "HgN/A
7:00 PM88 °FWarm.7 mph68%29.84 "HgN/A
6:00 PM90 °FHot.5 mph64%29.83 "HgN/A
5:00 PM92 °FHot.5 mph61%29.82 "HgN/A
4:00 PM91 °FHot.7 mph62%29.82 "HgN/A
Weather by CustomWeather, © 2015

See weather overviewHow to use our weather pages